Main page
METAR-TAF:

METAR-TAF

Airports :

Plzeň, Czech Republic

latitude: 49-40-31N, longitude: 13-16-29E, elevation: 362 m

Current weather observation

The report was made 1 hour and 3 minutes ago, at 00:00 UTC
Wind 4 kt from the Northeast, varying between North and East
Temperature 13°C
Humidity 77%
Pressure 1021 hPa
Visibility 10 km or more
Few clouds at a height of 6400 ft

METAR: LKLN 210000Z AUTO 04004KT 010V090 9999 FEW064 13/09 Q1021

Time: 03:03 (01:03 UTC)


TAF: missing

Weather observations and forecasts of more than 4000 airports (METAR and TAF reports).

The available stations are represented by yellow and red dots on the map.

Hover mouse over dot to see the name of the station.

Then click to see weather observations and forecasts.

To change the map : click on the green buttons with a black cross to zoom in, on the green button with a dash to zoom out, or on the green arrows for adjacent maps.


METAR-TAF: